Time,TemperatureF,DewpointF,PressureIn,WindDirection,WindDirectionDegrees,WindSpeedMPH,WindSpeedGustMPH,Humidity,HourlyPrecipIn,Conditions,Clouds,dailyrainin,SoftwareType,DateUTC
2013-05-06 00:02:00,54.7,45.8,29.84,NNW,337,0.0,1.1,72,0.00,,,0.00,WUHU21623XXSP,2013-05-06 07:02:00,
2013-05-06 00:07:00,54.5,46.0,29.85,NNW,337,0.0,1.1,73,0.00,,,0.00,WUHU21623XXSP,2013-05-06 07:07:00,
2013-05-06 00:12:00,54.3,45.8,29.85,NNW,337,0.9,0.9,73,0.00,,,0.00,WUHU21623XXSP,2013-05-06 07:12:00,
2013-05-06 00:17:00,54.1,45.7,29.85,NNW,337,0.0,1.1,73,0.00,,,0.00,WUHU21623XXSP,2013-05-06 07:17:00,
2013-05-06 00:22:00,53.8,45.7,29.85,NNW,337,0.0,1.1,74,0.00,,,0.00,WUHU21623XXSP,2013-05-06 07:22:00,
2013-05-06 00:27:00,53.4,45.3,29.85,WNW,292,0.0,2.7,74,0.00,,,0.00,WUHU21623XXSP,2013-05-06 07:27:00,
2013-05-06 00:32:00,53.4,45.3,29.85,WNW,292,0.0,2.7,74,0.00,,,0.00,WUHU21623XXSP,2013-05-06 07:32:00,
2013-05-06 00:37:00,53.2,45.2,29.86,WNW,292,0.0,0.0,74,0.00,,,0.00,WUHU21623XXSP,2013-05-06 07:37:00,
2013-05-06 00:42:00,52.9,44.8,29.86,WNW,292,0.0,0.0,74,0.00,,,0.00,WUHU21623XXSP,2013-05-06 07:42:00,
2013-05-06 00:47:00,52.7,45.0,29.85,WNW,292,0.0,0.0,75,0.00,,,0.00,WUHU21623XXSP,2013-05-06 07:47:00,
2013-05-06 00:52:00,52.5,44.8,29.86,WNW,292,0.0,0.0,75,0.00,,,0.00,WUHU21623XXSP,2013-05-06 07:52:00,
2013-05-06 00:57:00,52.3,44.7,29.86,WNW,292,0.0,0.0,75,0.00,,,0.00,WUHU21623XXSP,2013-05-06 07:57:00,
2013-05-06 01:02:00,52.2,44.8,29.85,WNW,292,0.0,0.0,76,0.00,,,0.00,WUHU21623XXSP,2013-05-06 08:02:00,
2013-05-06 01:07:00,52.2,44.8,29.85,NW,315,0.0,0.0,76,0.00,,,0.00,WUHU21623XXSP,2013-05-06 08:07:00,
2013-05-06 01:12:00,52.0,45.0,29.86,NW,315,0.0,0.0,77,0.00,,,0.00,WUHU21623XXSP,2013-05-06 08:12:00,
2013-05-06 01:17:00,51.6,44.7,29.86,NW,315,0.0,0.0,77,0.00,,,0.00,WUHU21623XXSP,2013-05-06 08:17:00,
2013-05-06 01:22:00,51.6,45.3,29.86,NW,315,0.0,0.0,79,0.00,,,0.00,WUHU21623XXSP,2013-05-06 08:22:00,
2013-05-06 01:27:00,51.4,45.2,29.86,NW,315,0.0,0.0,79,0.00,,,0.00,WUHU21623XXSP,2013-05-06 08:27:00,
2013-05-06 01:32:00,51.3,45.0,29.86,NW,315,0.0,0.0,79,0.00,,,0.00,WUHU21623XXSP,2013-05-06 08:32:00,
2013-05-06 01:37:00,51.1,45.1,29.86,NW,315,0.0,0.0,80,0.00,,,0.00,WUHU21623XXSP,2013-05-06 08:37:00,
2013-05-06 01:42:00,50.7,44.8,29.86,NW,315,0.0,0.9,80,0.00,,,0.00,WUHU21623XXSP,2013-05-06 08:42:00,
2013-05-06 01:47:00,50.5,44.6,29.86,NW,315,0.0,0.9,80,0.00,,,0.00,WUHU21623XXSP,2013-05-06 08:47:00,
2013-05-06 01:52:00,50.4,44.4,29.86,NW,315,0.0,0.0,80,0.00,,,0.00,WUHU21623XXSP,2013-05-06 08:52:00,
2013-05-06 01:57:00,50.2,44.2,29.86,NW,315,0.0,0.0,80,0.00,,,0.00,WUHU21623XXSP,2013-05-06 08:57:00,
2013-05-06 02:02:00,49.8,44.2,29.86,NW,315,0.0,0.0,81,0.00,,,0.00,WUHU21623XXSP,2013-05-06 09:02:00,
2013-05-06 02:08:00,49.6,44.0,29.86,NW,315,0.0,0.0,81,0.00,,,0.00,WUHU21623XXSP,2013-05-06 09:08:00,
2013-05-06 02:13:00,49.5,43.8,29.86,NW,315,0.0,0.0,81,0.00,,,0.00,WUHU21623XXSP,2013-05-06 09:13:00,
2013-05-06 02:18:00,49.3,43.6,29.85,NW,315,0.0,0.0,81,0.00,,,0.00,WUHU21623XXSP,2013-05-06 09:18:00,
2013-05-06 02:23:00,49.1,43.8,29.85,NW,315,0.0,0.0,82,0.00,,,0.00,WUHU21623XXSP,2013-05-06 09:23:00,
2013-05-06 02:27:00,48.9,43.6,29.86,NW,315,0.0,0.7,82,0.00,,,0.00,WUHU21623XXSP,2013-05-06 09:27:00,
2013-05-06 02:33:00,48.7,43.8,29.86,NW,315,0.0,2.7,83,0.00,,,0.00,WUHU21623XXSP,2013-05-06 09:33:00,
2013-05-06 02:38:00,48.6,43.6,29.86,NW,315,0.0,2.7,83,0.00,,,0.00,WUHU21623XXSP,2013-05-06 09:38:00,
2013-05-06 02:43:00,48.6,43.9,29.86,NW,315,0.0,0.7,84,0.00,,,0.00,WUHU21623XXSP,2013-05-06 09:43:00,
2013-05-06 02:48:00,48.4,43.7,29.86,NW,315,0.0,0.7,84,0.00,,,0.00,WUHU21623XXSP,2013-05-06 09:48:00,
2013-05-06 02:53:00,48.2,43.6,29.86,NW,315,0.0,2.0,84,0.00,,,0.00,WUHU21623XXSP,2013-05-06 09:53:00,
2013-05-06 02:58:00,48.0,43.4,29.86,NW,315,0.0,2.0,84,0.00,,,0.00,WUHU21623XXSP,2013-05-06 09:58:00,
2013-05-06 03:03:00,47.8,43.2,29.86,NW,315,0.0,0.0,84,0.00,,,0.00,WUHU21623XXSP,2013-05-06 10:03:00,
2013-05-06 03:08:00,47.7,43.0,29.86,East,90,0.0,1.8,84,0.00,,,0.00,WUHU21623XXSP,2013-05-06 10:08:00,
2013-05-06 03:13:00,47.5,43.2,29.86,East,90,0.0,1.8,85,0.00,,,0.00,WUHU21623XXSP,2013-05-06 10:13:00,
2013-05-06 03:18:00,47.5,43.2,29.86,East,90,0.0,0.0,85,0.00,,,0.00,WUHU21623XXSP,2013-05-06 10:18:00,
2013-05-06 03:23:00,47.3,43.0,29.86,East,90,0.0,0.0,85,0.00,,,0.00,WUHU21623XXSP,2013-05-06 10:23:00,
2013-05-06 03:28:00,47.3,43.0,29.86,East,90,0.0,0.0,85,0.00,,,0.00,WUHU21623XXSP,2013-05-06 10:28:00,
2013-05-06 03:33:00,47.1,42.9,29.86,East,90,0.0,0.0,85,0.00,,,0.00,WUHU21623XXSP,2013-05-06 10:33:00,
2013-05-06 03:38:00,46.9,42.7,29.86,East,90,0.0,0.0,85,0.00,,,0.00,WUHU21623XXSP,2013-05-06 10:38:00,
2013-05-06 03:43:00,46.6,42.6,29.86,East,90,0.0,0.0,86,0.00,,,0.00,WUHU21623XXSP,2013-05-06 10:43:00,
2013-05-06 03:48:00,46.6,42.6,29.86,East,90,0.0,0.0,86,0.00,,,0.00,WUHU21623XXSP,2013-05-06 10:48:00,
2013-05-06 03:53:00,46.2,42.3,29.86,East,90,0.0,0.0,86,0.00,,,0.00,WUHU21623XXSP,2013-05-06 10:53:00,
2013-05-06 03:58:00,46.2,42.3,29.86,East,90,0.0,0.0,86,0.00,,,0.00,WUHU21623XXSP,2013-05-06 10:58:00,
2013-05-06 04:03:00,46.0,42.1,29.86,East,90,0.0,0.0,86,0.00,,,0.00,WUHU21623XXSP,2013-05-06 11:03:00,
2013-05-06 04:08:00,46.0,42.1,29.86,East,90,0.0,0.0,86,0.00,,,0.00,WUHU21623XXSP,2013-05-06 11:08:00,
2013-05-06 04:13:00,45.7,41.8,29.86,East,90,0.0,0.0,86,0.00,,,0.00,WUHU21623XXSP,2013-05-06 11:13:00,
2013-05-06 04:18:00,45.7,42.1,29.86,East,90,0.0,0.0,87,0.00,,,0.00,WUHU21623XXSP,2013-05-06 11:18:00,
2013-05-06 04:23:00,45.5,41.9,29.86,East,90,0.0,0.0,87,0.00,,,0.00,WUHU21623XXSP,2013-05-06 11:23:00,
2013-05-06 04:28:00,45.3,41.7,29.87,East,90,0.0,0.0,87,0.00,,,0.00,WUHU21623XXSP,2013-05-06 11:28:00,
2013-05-06 04:33:00,45.3,41.7,29.86,NE,45,0.0,0.0,87,0.00,,,0.00,WUHU21623XXSP,2013-05-06 11:33:00,
2013-05-06 04:38:00,45.3,42.0,29.86,NNE,22,0.0,0.0,88,0.00,,,0.00,WUHU21623XXSP,2013-05-06 11:38:00,
2013-05-06 04:43:00,45.1,41.8,29.86,NNE,22,0.0,0.0,88,0.00,,,0.00,WUHU21623XXSP,2013-05-06 11:43:00,
2013-05-06 04:48:00,45.1,41.8,29.86,NNE,22,0.0,0.0,88,0.00,,,0.00,WUHU21623XXSP,2013-05-06 11:48:00,
2013-05-06 04:53:00,45.0,41.6,29.86,NNE,22,0.0,0.0,88,0.00,,,0.00,WUHU21623XXSP,2013-05-06 11:53:00,
2013-05-06 04:58:00,45.0,41.6,29.86,NNE,22,0.0,0.0,88,0.00,,,0.00,WUHU21623XXSP,2013-05-06 11:58:00,
2013-05-06 05:03:00,44.8,41.5,29.87,NNE,22,0.0,0.0,88,0.00,,,0.00,WUHU21623XXSP,2013-05-06 12:03:00,
2013-05-06 05:08:00,44.6,41.3,29.86,NNE,22,0.0,0.0,88,0.00,,,0.00,WUHU21623XXSP,2013-05-06 12:08:00,
2013-05-06 05:13:00,44.4,41.1,29.86,NNE,22,0.0,0.0,88,0.00,,,0.00,WUHU21623XXSP,2013-05-06 12:13:00,
2013-05-06 05:18:00,44.4,41.1,29.86,NNE,22,0.0,0.0,88,0.00,,,0.00,WUHU21623XXSP,2013-05-06 12:18:00,
2013-05-06 05:23:00,44.2,40.9,29.87,NNE,22,0.0,0.0,88,0.00,,,0.00,WUHU21623XXSP,2013-05-06 12:23:00,
2013-05-06 05:28:00,44.1,40.7,29.87,NNE,22,0.0,0.0,88,0.00,,,0.00,WUHU21623XXSP,2013-05-06 12:28:00,
2013-05-06 05:33:00,43.9,40.6,29.87,NNE,22,0.0,0.0,88,0.00,,,0.00,WUHU21623XXSP,2013-05-06 12:33:00,
2013-05-06 05:38:00,43.5,40.2,29.87,NNE,22,0.0,0.0,88,0.00,,,0.00,WUHU21623XXSP,2013-05-06 12:38:00,
2013-05-06 05:43:00,43.5,40.2,29.87,NNE,22,0.0,0.0,88,0.00,,,0.00,WUHU21623XXSP,2013-05-06 12:43:00,
2013-05-06 05:48:00,43.5,40.5,29.87,NNE,22,0.0,0.0,89,0.00,,,0.00,WUHU21623XXSP,2013-05-06 12:48:00,
2013-05-06 05:53:00,43.3,40.3,29.87,NNE,22,0.0,0.0,89,0.00,,,0.00,WUHU21623XXSP,2013-05-06 12:53:00,
2013-05-06 05:58:00,43.3,40.3,29.87,NNE,22,0.0,0.0,89,0.00,,,0.00,WUHU21623XXSP,2013-05-06 12:58:00,
2013-05-06 06:03:00,43.3,40.3,29.87,NNE,22,0.0,0.0,89,0.00,,,0.00,WUHU21623XXSP,2013-05-06 13:03:00,
2013-05-06 06:08:00,43.3,40.3,29.87,NNE,22,0.0,0.0,89,0.00,,,0.00,WUHU21623XXSP,2013-05-06 13:08:00,
2013-05-06 06:13:00,43.3,40.3,29.88,NNE,22,0.0,0.0,89,0.00,,,0.00,WUHU21623XXSP,2013-05-06 13:13:00,
2013-05-06 06:18:00,43.2,40.2,29.87,NNE,22,0.0,0.0,89,0.00,,,0.00,WUHU21623XXSP,2013-05-06 13:18:00,
2013-05-06 06:23:00,43.0,40.0,29.87,NNE,22,0.0,0.0,89,0.00,,,0.00,WUHU21623XXSP,2013-05-06 13:23:00,
2013-05-06 06:28:00,43.0,40.0,29.88,NNE,22,0.0,0.0,89,0.00,,,0.00,WUHU21623XXSP,2013-05-06 13:28:00,
2013-05-06 06:33:00,43.0,40.0,29.88,NNE,22,0.0,0.0,89,0.00,,,0.00,WUHU21623XXSP,2013-05-06 13:33:00,
2013-05-06 06:38:00,43.3,40.3,29.88,NNE,22,0.0,0.0,89,0.00,,,0.00,WUHU21623XXSP,2013-05-06 13:38:00,
2013-05-06 06:43:00,43.5,40.5,29.88,NNE,22,0.0,0.0,89,0.00,,,0.00,WUHU21623XXSP,2013-05-06 13:43:00,
2013-05-06 06:48:00,43.7,41.0,29.88,NNE,22,0.0,0.0,90,0.00,,,0.00,WUHU21623XXSP,2013-05-06 13:48:00,
2013-05-06 06:53:00,43.9,41.2,29.88,NNE,22,0.0,0.0,90,0.00,,,0.00,WUHU21623XXSP,2013-05-06 13:53:00,
2013-05-06 06:58:00,43.9,41.2,29.88,NNE,22,0.0,0.0,90,0.00,,,0.00,WUHU21623XXSP,2013-05-06 13:58:00,
2013-05-06 07:03:00,44.2,41.5,29.88,NNE,22,0.0,0.0,90,0.00,,,0.00,WUHU21623XXSP,2013-05-06 14:03:00,
2013-05-06 07:08:00,44.4,41.7,29.88,NNE,22,0.0,0.0,90,0.00,,,0.00,WUHU21623XXSP,2013-05-06 14:08:00,
2013-05-06 07:16:00,44.4,41.7,29.88,NNE,22,0.0,0.0,90,0.00,,,0.00,WUHU21623XXSP,2013-05-06 14:16:00,
2013-05-06 07:21:00,46.0,43.6,29.88,NNE,22,0.0,0.0,91,0.00,,,0.00,WUHU21623XXSP,2013-05-06 14:21:00,
2013-05-06 07:26:00,47.1,44.7,29.88,NNE,22,0.0,0.0,91,0.00,,,0.00,WUHU21623XXSP,2013-05-06 14:26:00,
2013-05-06 07:31:00,48.6,46.4,29.88,NNE,22,0.0,0.0,92,0.00,,,0.00,WUHU21623XXSP,2013-05-06 14:31:00,
2013-05-06 07:36:00,49.1,46.9,29.88,NNE,22,0.0,0.0,92,0.00,,,0.00,WUHU21623XXSP,2013-05-06 14:36:00,
2013-05-06 07:41:00,49.8,47.5,29.88,NNE,22,0.0,0.0,92,0.00,,,0.00,WUHU21623XXSP,2013-05-06 14:41:00,
2013-05-06 07:46:00,50.9,48.9,29.88,NNE,22,0.0,0.0,93,0.00,,,0.00,WUHU21623XXSP,2013-05-06 14:46:00,
2013-05-06 07:51:00,52.3,50.0,29.88,NNE,22,0.0,0.0,92,0.00,,,0.00,WUHU21623XXSP,2013-05-06 14:51:00,
2013-05-06 07:56:00,54.0,51.7,29.89,NNE,22,0.0,0.0,92,0.00,,,0.00,WUHU21623XXSP,2013-05-06 14:56:00,
2013-05-06 08:01:00,55.6,52.7,29.88,NNE,22,0.0,0.0,90,0.00,,,0.00,WUHU21623XXSP,2013-05-06 15:01:00,
2013-05-06 08:07:00,57.0,53.2,29.88,NNE,22,0.0,0.0,87,0.00,,,0.00,WUHU21623XXSP,2013-05-06 15:07:00,
2013-05-06 08:12:00,58.6,54.1,29.88,NNE,22,0.0,0.0,85,0.00,,,0.00,WUHU21623XXSP,2013-05-06 15:12:00,
2013-05-06 08:17:00,59.7,54.2,29.88,NNE,22,0.0,0.0,82,0.00,,,0.00,WUHU21623XXSP,2013-05-06 15:17:00,
2013-05-06 08:22:00,61.3,54.8,29.88,NNE,22,0.0,0.0,79,0.00,,,0.00,WUHU21623XXSP,2013-05-06 15:22:00,
2013-05-06 08:27:00,62.6,54.9,29.88,NNE,22,0.0,0.0,76,0.00,,,0.00,WUHU21623XXSP,2013-05-06 15:27:00,
2013-05-06 08:32:00,63.9,55.0,29.88,NNE,22,0.0,0.0,73,0.00,,,0.00,WUHU21623XXSP,2013-05-06 15:32:00,
2013-05-06 08:37:00,64.9,55.0,29.88,NNE,22,0.0,0.0,70,0.00,,,0.00,WUHU21623XXSP,2013-05-06 15:37:00,
2013-05-06 08:42:00,66.0,54.3,29.88,NNE,22,0.0,0.0,66,0.00,,,0.00,WUHU21623XXSP,2013-05-06 15:42:00,
2013-05-06 08:47:00,66.9,54.3,29.87,NNE,22,0.0,0.0,64,0.00,,,0.00,WUHU21623XXSP,2013-05-06 15:47:00,
2013-05-06 08:52:00,67.8,54.7,29.87,NNE,22,0.0,0.0,63,0.00,,,0.00,WUHU21623XXSP,2013-05-06 15:52:00,
2013-05-06 08:57:00,68.5,54.6,29.88,North,0,0.0,0.0,61,0.00,,,0.00,WUHU21623XXSP,2013-05-06 15:57:00,
2013-05-06 09:02:00,69.6,55.2,29.87,NNE,22,0.0,0.0,60,0.00,,,0.00,WUHU21623XXSP,2013-05-06 16:02:00,
2013-05-06 09:07:00,69.6,54.2,29.87,NNE,22,0.0,0.0,58,0.00,,,0.00,WUHU21623XXSP,2013-05-06 16:07:00,
2013-05-06 09:12:00,70.3,55.4,29.88,NNE,22,0.0,0.0,59,0.00,,,0.00,WUHU21623XXSP,2013-05-06 16:12:00,
2013-05-06 09:17:00,71.4,56.4,29.87,SSW,202,0.0,0.0,59,0.00,,,0.00,WUHU21623XXSP,2013-05-06 16:17:00,
2013-05-06 09:22:00,72.5,55.3,29.87,West,270,0.0,0.0,55,0.00,,,0.00,WUHU21623XXSP,2013-05-06 16:22:00,
2013-05-06 09:27:00,73.2,55.0,29.87,NE,45,0.0,0.0,53,0.00,,,0.00,WUHU21623XXSP,2013-05-06 16:27:00,
2013-05-06 09:32:00,73.0,52.3,29.86,NE,45,0.0,0.0,48,0.00,,,0.00,WUHU21623XXSP,2013-05-06 16:32:00,
2013-05-06 09:37:00,72.7,50.6,29.87,NE,45,0.0,0.0,46,0.00,,,0.00,WUHU21623XXSP,2013-05-06 16:37:00,
2013-05-06 09:42:00,72.3,50.3,29.86,NE,45,0.0,0.0,46,0.00,,,0.00,WUHU21623XXSP,2013-05-06 16:42:00,
2013-05-06 09:47:00,72.9,51.3,29.87,NNW,337,0.0,0.0,47,0.00,,,0.00,WUHU21623XXSP,2013-05-06 16:47:00,
2013-05-06 09:52:00,73.0,51.5,29.87,NNW,337,0.0,0.0,47,0.00,,,0.00,WUHU21623XXSP,2013-05-06 16:52:00,
2013-05-06 09:57:00,75.2,52.3,29.87,WNW,292,0.0,0.0,45,0.00,,,0.00,WUHU21623XXSP,2013-05-06 16:57:00,
2013-05-06 10:01:00,77.2,52.3,29.86,WNW,292,0.0,0.0,42,0.00,,,0.00,WUHU21623XXSP,2013-05-06 17:01:00,
2013-05-06 10:02:00,76.6,53.0,29.86,NW,315,0.0,0.0,44,0.00,,,0.00,WUHU21623XXSP,2013-05-06 17:02:00,
2013-05-06 10:18:00,79.0,51.1,29.86,North,0,0.0,0.0,38,0.00,,,0.00,WUHU21623XXSP,2013-05-06 17:18:00,
2013-05-06 10:19:00,79.3,50.7,29.86,North,0,0.0,0.0,37,0.00,,,0.00,WUHU21623XXSP,2013-05-06 17:19:00,
2013-05-06 10:33:00,81.3,51.7,29.86,NW,315,0.0,0.0,36,0.00,,,0.00,WUHU21623XXSP,2013-05-06 17:33:00,
2013-05-06 10:34:00,81.9,51.3,29.86,NNW,337,0.0,0.0,35,0.00,,,0.00,WUHU21623XXSP,2013-05-06 17:34:00,
2013-05-06 10:47:00,81.9,51.3,29.86,NNW,337,0.0,0.0,35,0.00,,,0.00,WUHU21623XXSP,2013-05-06 17:47:00,
2013-05-06 10:52:00,83.8,52.1,29.86,NW,315,0.0,0.0,34,0.00,,,0.00,WUHU21623XXSP,2013-05-06 17:52:00,
2013-05-06 10:57:00,84.7,53.1,29.85,WNW,292,0.0,0.0,34,0.00,,,0.00,WUHU21623XXSP,2013-05-06 17:57:00,
2013-05-06 11:02:00,85.3,52.0,29.85,NNW,337,0.0,0.0,32,0.00,,,0.00,WUHU21623XXSP,2013-05-06 18:02:00,
2013-05-06 11:07:00,84.9,50.1,29.85,North,0,0.0,0.0,30,0.00,,,0.00,WUHU21623XXSP,2013-05-06 18:07:00,
2013-05-06 11:12:00,85.3,52.0,29.84,South,180,0.0,0.0,32,0.00,,,0.00,WUHU21623XXSP,2013-05-06 18:12:00,
2013-05-06 11:17:00,86.5,53.1,29.85,West,270,0.0,0.0,32,0.00,,,0.00,WUHU21623XXSP,2013-05-06 18:17:00,
2013-05-06 11:22:00,87.8,53.3,29.84,West,270,0.0,0.0,31,0.00,,,0.00,WUHU21623XXSP,2013-05-06 18:22:00,
2013-05-06 11:27:00,88.7,54.1,29.84,SE,135,0.0,0.0,31,0.00,,,0.00,WUHU21623XXSP,2013-05-06 18:27:00,
2013-05-06 11:32:00,89.4,51.8,29.84,NE,45,0.0,0.0,28,0.00,,,0.00,WUHU21623XXSP,2013-05-06 18:32:00,
2013-05-06 11:37:00,89.2,51.7,29.83,WNW,292,0.0,0.0,28,0.00,,,0.00,WUHU21623XXSP,2013-05-06 18:37:00,
2013-05-06 11:42:00,89.4,51.8,29.83,WNW,292,0.0,0.0,28,0.00,,,0.00,WUHU21623XXSP,2013-05-06 18:42:00,
2013-05-06 11:47:00,89.8,52.1,29.83,West,270,0.0,0.0,28,0.00,,,0.00,WUHU21623XXSP,2013-05-06 18:47:00,
2013-05-06 11:52:00,90.0,52.3,29.83,NW,315,0.0,0.0,28,0.00,,,0.00,WUHU21623XXSP,2013-05-06 18:52:00,
2013-05-06 11:57:00,90.1,51.4,29.83,NNE,22,0.0,0.0,27,0.00,,,0.00,WUHU21623XXSP,2013-05-06 18:57:00,
2013-05-06 12:02:00,90.5,51.7,29.83,NW,315,0.0,0.0,27,0.00,,,0.00,WUHU21623XXSP,2013-05-06 19:02:00,
2013-05-06 12:07:00,91.4,55.8,29.83,SW,225,0.0,0.0,30,0.00,,,0.00,WUHU21623XXSP,2013-05-06 19:07:00,
2013-05-06 12:12:00,92.3,54.3,29.83,SSE,157,0.0,0.0,28,0.00,,,0.00,WUHU21623XXSP,2013-05-06 19:12:00,
2013-05-06 12:17:00,92.5,53.3,29.82,West,270,0.0,0.0,27,0.00,,,0.00,WUHU21623XXSP,2013-05-06 19:17:00,
2013-05-06 12:22:00,92.7,54.6,29.83,NW,315,0.0,0.0,28,0.00,,,0.00,WUHU21623XXSP,2013-05-06 19:22:00,
2013-05-06 12:27:00,92.8,54.7,29.82,South,180,0.0,0.0,28,0.00,,,0.00,WUHU21623XXSP,2013-05-06 19:27:00,
2013-05-06 12:32:00,93.4,55.1,29.82,SW,225,0.0,0.0,28,0.00,,,0.00,WUHU21623XXSP,2013-05-06 19:32:00,
2013-05-06 12:37:00,94.1,55.8,29.82,West,270,0.0,0.0,28,0.00,,,0.00,WUHU21623XXSP,2013-05-06 19:37:00,
2013-05-06 12:42:00,93.9,54.5,29.82,WNW,292,0.0,0.0,27,0.00,,,0.00,WUHU21623XXSP,2013-05-06 19:42:00,
2013-05-06 12:47:00,93.4,53.0,29.82,North,0,0.0,0.0,26,0.00,,,0.00,WUHU21623XXSP,2013-05-06 19:47:00,
2013-05-06 12:52:00,92.8,52.5,29.81,WNW,292,0.0,0.0,26,0.00,,,0.00,WUHU21623XXSP,2013-05-06 19:52:00,
2013-05-06 12:57:00,92.5,52.2,29.82,NNE,22,0.0,0.0,26,0.00,,,0.00,WUHU21623XXSP,2013-05-06 19:57:00,
2013-05-06 13:02:00,92.3,52.1,29.82,NNW,337,0.0,0.0,26,0.00,,,0.00,WUHU21623XXSP,2013-05-06 20:02:00,
2013-05-06 13:07:00,91.8,49.5,29.82,NNE,22,0.0,0.0,24,0.00,,,0.00,WUHU21623XXSP,2013-05-06 20:07:00,
2013-05-06 13:12:00,91.2,49.0,29.82,NW,315,0.0,0.0,24,0.00,,,0.00,WUHU21623XXSP,2013-05-06 20:12:00,
2013-05-06 13:17:00,90.9,47.6,29.82,NW,315,0.0,0.0,23,0.00,,,0.00,WUHU21623XXSP,2013-05-06 20:17:00,
2013-05-06 13:22:00,90.3,47.2,29.81,NNW,337,0.0,0.0,23,0.00,,,0.00,WUHU21623XXSP,2013-05-06 20:22:00,
2013-05-06 13:27:00,90.1,49.2,29.81,NNE,22,0.0,0.0,25,0.00,,,0.00,WUHU21623XXSP,2013-05-06 20:27:00,
2013-05-06 13:32:00,90.0,47.9,29.81,NW,315,0.0,0.0,24,0.00,,,0.00,WUHU21623XXSP,2013-05-06 20:32:00,
2013-05-06 13:37:00,90.0,49.0,29.81,West,270,0.0,0.0,25,0.00,,,0.00,WUHU21623XXSP,2013-05-06 20:37:00,
2013-05-06 13:43:00,90.0,47.9,29.81,NE,45,0.0,0.0,24,0.00,,,0.00,WUHU21623XXSP,2013-05-06 20:43:00,
2013-05-06 13:48:00,90.1,50.3,29.81,NNW,337,0.0,0.0,26,0.00,,,0.00,WUHU21623XXSP,2013-05-06 20:48:00,
2013-05-06 13:53:00,90.1,49.2,29.81,North,0,0.0,0.0,25,0.00,,,0.00,WUHU21623XXSP,2013-05-06 20:53:00,
2013-05-06 13:58:00,90.3,51.5,29.81,NW,315,0.0,0.0,27,0.00,,,0.00,WUHU21623XXSP,2013-05-06 20:58:00,
2013-05-06 14:03:00,90.0,50.1,29.81,NW,315,0.0,0.0,26,0.00,,,0.00,WUHU21623XXSP,2013-05-06 21:03:00,
2013-05-06 14:08:00,89.4,50.7,29.80,NW,315,0.0,0.0,27,0.00,,,0.00,WUHU21623XXSP,2013-05-06 21:08:00,
2013-05-06 14:13:00,89.2,50.6,29.80,NNE,22,0.0,0.0,27,0.00,,,0.00,WUHU21623XXSP,2013-05-06 21:13:00,
2013-05-06 14:18:00,89.2,51.7,29.81,NW,315,0.0,0.0,28,0.00,,,0.00,WUHU21623XXSP,2013-05-06 21:18:00,
2013-05-06 14:23:00,89.2,49.5,29.81,NNW,337,0.0,0.0,26,0.00,,,0.00,WUHU21623XXSP,2013-05-06 21:23:00,
2013-05-06 14:28:00,89.1,50.4,29.80,NNW,337,0.0,0.0,27,0.00,,,0.00,WUHU21623XXSP,2013-05-06 21:28:00,
2013-05-06 14:33:00,89.2,50.6,29.81,NNW,337,0.0,0.0,27,0.00,,,0.00,WUHU21623XXSP,2013-05-06 21:33:00,
2013-05-06 14:38:00,89.2,50.6,29.81,North,0,0.0,0.0,27,0.00,,,0.00,WUHU21623XXSP,2013-05-06 21:38:00,
2013-05-06 14:43:00,89.4,49.7,29.80,NNW,337,0.0,0.0,26,0.00,,,0.00,WUHU21623XXSP,2013-05-06 21:43:00,
2013-05-06 14:48:00,89.1,49.4,29.80,WNW,292,2.9,8.7,26,0.00,,,0.00,WUHU21623XXSP,2013-05-06 21:48:00,
2013-05-06 14:53:00,89.2,48.4,29.80,NNE,22,5.6,8.7,25,0.00,,,0.00,WUHU21623XXSP,2013-05-06 21:53:00,
2013-05-06 14:58:00,88.9,48.1,29.80,NNW,337,2.5,9.4,25,0.00,,,0.00,WUHU21623XXSP,2013-05-06 21:58:00,
2013-05-06 15:03:00,88.9,48.1,29.80,WNW,292,2.9,11.6,25,0.00,,,0.00,WUHU21623XXSP,2013-05-06 22:03:00,
2013-05-06 15:08:00,88.9,47.0,29.80,WSW,247,5.8,11.6,24,0.00,,,0.00,WUHU21623XXSP,2013-05-06 22:08:00,
2013-05-06 15:13:00,89.2,48.4,29.79,West,270,4.0,10.5,25,0.00,,,0.00,WUHU21623XXSP,2013-05-06 22:13:00,
2013-05-06 15:18:00,89.4,48.6,29.79,West,270,4.5,6.9,25,0.00,,,0.00,WUHU21623XXSP,2013-05-06 22:18:00,
2013-05-06 15:23:00,89.8,48.9,29.79,NNW,337,2.7,6.3,25,0.00,,,0.00,WUHU21623XXSP,2013-05-06 22:23:00,
2013-05-06 15:28:00,89.6,47.7,29.80,NW,315,0.0,8.3,24,0.00,,,0.00,WUHU21623XXSP,2013-05-06 22:28:00,
2013-05-06 15:33:00,89.8,48.9,29.79,NNE,22,2.5,8.3,25,0.00,,,0.00,WUHU21623XXSP,2013-05-06 22:33:00,
2013-05-06 15:38:00,89.8,47.8,29.79,NW,315,5.1,6.5,24,0.00,,,0.00,WUHU21623XXSP,2013-05-06 22:38:00,
2013-05-06 15:43:00,89.8,48.9,29.79,NW,315,6.3,6.5,25,0.00,,,0.00,WUHU21623XXSP,2013-05-06 22:43:00,
2013-05-06 15:48:00,90.1,50.3,29.79,West,270,2.7,6.3,26,0.00,,,0.00,WUHU21623XXSP,2013-05-06 22:48:00,
2013-05-06 15:53:00,90.3,49.4,29.79,NW,315,6.3,9.8,25,0.00,,,0.00,WUHU21623XXSP,2013-05-06 22:53:00,
2013-05-06 15:58:00,90.1,49.2,29.79,NNW,337,0.0,9.8,25,0.00,,,0.00,WUHU21623XXSP,2013-05-06 22:58:00,
2013-05-06 16:03:00,90.1,49.2,29.79,WNW,292,3.1,7.8,25,0.00,,,0.00,WUHU21623XXSP,2013-05-06 23:03:00,
2013-05-06 16:08:00,90.1,49.2,29.78,NW,315,2.2,7.2,25,0.00,,,0.00,WUHU21623XXSP,2013-05-06 23:08:00,
2013-05-06 16:13:00,89.8,48.9,29.78,NW,315,1.6,7.2,25,0.00,,,0.00,WUHU21623XXSP,2013-05-06 23:13:00,
2013-05-06 16:18:00,89.4,48.6,29.78,West,270,0.7,8.3,25,0.00,,,0.00,WUHU21623XXSP,2013-05-06 23:18:00,
2013-05-06 16:23:00,88.9,48.1,29.78,NW,315,4.7,8.3,25,0.00,,,0.00,WUHU21623XXSP,2013-05-06 23:23:00,
2013-05-06 16:28:00,88.3,48.7,29.78,North,0,5.6,8.1,26,0.00,,,0.00,WUHU21623XXSP,2013-05-06 23:28:00,
2013-05-06 16:33:00,88.0,48.4,29.78,WNW,292,4.7,11.9,26,0.00,,,0.00,WUHU21623XXSP,2013-05-06 23:33:00,
2013-05-06 16:38:00,87.6,48.1,29.78,WNW,292,4.7,11.9,26,0.00,,,0.00,WUHU21623XXSP,2013-05-06 23:38:00,
2013-05-06 16:43:00,87.4,48.0,29.78,NNW,337,6.9,8.9,26,0.00,,,0.00,WUHU21623XXSP,2013-05-06 23:43:00,
2013-05-06 16:48:00,87.1,47.7,29.77,NNE,22,0.0,9.6,26,0.00,,,0.00,WUHU21623XXSP,2013-05-06 23:48:00,
2013-05-06 16:53:00,87.1,48.7,29.78,NNW,337,5.1,9.6,27,0.00,,,0.00,WUHU21623XXSP,2013-05-06 23:53:00,
2013-05-06 16:59:00,86.7,47.4,29.78,North,0,7.2,8.5,26,0.00,,,0.00,WUHU21623XXSP,2013-05-06 23:59:00,
2013-05-06 17:04:00,86.4,47.0,29.78,NNW,337,4.3,10.5,26,0.00,,,0.00,WUHU21623XXSP,2013-05-07 00:04:00,
2013-05-06 17:09:00,86.2,46.9,29.78,NNW,337,7.4,10.5,26,0.00,,,0.00,WUHU21623XXSP,2013-05-07 00:09:00,
2013-05-06 17:14:00,85.8,46.6,29.77,NNW,337,4.7,8.9,26,0.00,,,0.00,WUHU21623XXSP,2013-05-07 00:14:00,
2013-05-06 17:19:00,85.8,47.7,29.78,North,0,3.1,7.4,27,0.00,,,0.00,WUHU21623XXSP,2013-05-07 00:19:00,
2013-05-06 17:24:00,85.6,46.4,29.78,NNW,337,6.3,9.2,26,0.00,,,0.00,WUHU21623XXSP,2013-05-07 00:24:00,
2013-05-06 17:29:00,85.5,47.4,29.78,NNW,337,1.1,10.3,27,0.00,,,0.00,WUHU21623XXSP,2013-05-07 00:29:00,
2013-05-06 17:34:00,85.3,47.2,29.78,NW,315,4.7,10.3,27,0.00,,,0.00,WUHU21623XXSP,2013-05-07 00:34:00,
2013-05-06 17:39:00,84.7,47.8,29.78,WNW,292,2.5,9.2,28,0.00,,,0.00,WUHU21623XXSP,2013-05-07 00:39:00,
2013-05-06 17:44:00,84.6,47.6,29.78,NNW,337,4.3,8.1,28,0.00,,,0.00,WUHU21623XXSP,2013-05-07 00:44:00,
2013-05-06 17:49:00,84.0,47.2,29.78,NNW,337,2.9,9.4,28,0.00,,,0.00,WUHU21623XXSP,2013-05-07 00:49:00,
2013-05-06 17:54:00,83.5,46.7,29.78,NW,315,3.1,9.4,28,0.00,,,0.00,WUHU21623XXSP,2013-05-07 00:54:00,
2013-05-06 17:59:00,83.5,47.8,29.78,WNW,292,5.6,7.4,29,0.00,,,0.00,WUHU21623XXSP,2013-05-07 00:59:00,
2013-05-06 18:04:00,83.1,47.4,29.78,WNW,292,3.6,7.6,29,0.00,,,0.00,WUHU21623XXSP,2013-05-07 01:04:00,
2013-05-06 18:09:00,83.1,48.5,29.77,WNW,292,4.5,7.6,30,0.00,,,0.00,WUHU21623XXSP,2013-05-07 01:09:00,
2013-05-06 18:14:00,82.9,48.3,29.77,West,270,0.7,5.6,30,0.00,,,0.00,WUHU21623XXSP,2013-05-07 01:14:00,
2013-05-06 18:19:00,82.8,48.2,29.77,WNW,292,2.2,5.1,30,0.00,,,0.00,WUHU21623XXSP,2013-05-07 01:19:00,
2013-05-06 18:24:00,82.6,48.8,29.77,WNW,292,5.1,6.7,31,0.00,,,0.00,WUHU21623XXSP,2013-05-07 01:24:00,
2013-05-06 18:29:00,82.2,48.5,29.77,NW,315,2.2,6.7,31,0.00,,,0.00,WUHU21623XXSP,2013-05-07 01:29:00,
2013-05-06 18:34:00,82.0,48.3,29.77,NW,315,2.2,6.0,31,0.00,,,0.00,WUHU21623XXSP,2013-05-07 01:34:00,
2013-05-06 18:39:00,81.7,48.8,29.77,NW,315,5.8,5.8,32,0.00,,,0.00,WUHU21623XXSP,2013-05-07 01:39:00,
2013-05-06 18:44:00,81.1,48.4,29.76,West,270,2.9,6.5,32,0.00,,,0.00,WUHU21623XXSP,2013-05-07 01:44:00,
2013-05-06 18:49:00,80.8,48.9,29.77,WNW,292,2.5,9.2,33,0.00,,,0.00,WUHU21623XXSP,2013-05-07 01:49:00,
2013-05-06 18:54:00,80.2,49.2,29.78,NW,315,3.6,9.2,34,0.00,,,0.00,WUHU21623XXSP,2013-05-07 01:54:00,
2013-05-06 18:59:00,79.7,48.7,29.77,NNW,337,5.8,8.7,34,0.00,,,0.00,WUHU21623XXSP,2013-05-07 01:59:00,
2013-05-06 19:04:00,79.2,48.2,29.77,NW,315,4.7,9.4,34,0.00,,,0.00,WUHU21623XXSP,2013-05-07 02:04:00,
2013-05-06 19:09:00,78.6,48.5,29.77,NW,315,2.9,9.4,35,0.00,,,0.00,WUHU21623XXSP,2013-05-07 02:09:00,
2013-05-06 19:14:00,78.4,48.3,29.77,NW,315,0.0,7.6,35,0.00,,,0.00,WUHU21623XXSP,2013-05-07 02:14:00,
2013-05-06 19:19:00,77.9,48.7,29.78,WNW,292,0.0,7.6,36,0.00,,,0.00,WUHU21623XXSP,2013-05-07 02:19:00,
2013-05-06 19:24:00,77.4,48.2,29.78,West,270,1.1,5.4,36,0.00,,,0.00,WUHU21623XXSP,2013-05-07 02:24:00,
2013-05-06 19:29:00,76.8,48.5,29.78,NW,315,0.0,6.0,37,0.00,,,0.00,WUHU21623XXSP,2013-05-07 02:29:00,
2013-05-06 19:34:00,76.5,48.1,29.78,NNW,337,5.1,6.0,37,0.00,,,0.00,WUHU21623XXSP,2013-05-07 02:34:00,
2013-05-06 19:39:00,75.7,48.3,29.78,NW,315,1.8,5.1,38,0.00,,,0.00,WUHU21623XXSP,2013-05-07 02:39:00,
2013-05-06 19:44:00,75.2,47.8,29.78,NW,315,2.7,4.3,38,0.00,,,0.00,WUHU21623XXSP,2013-05-07 02:44:00,
2013-05-06 19:49:00,74.5,47.9,29.78,NNW,337,0.0,5.8,39,0.00,,,0.00,WUHU21623XXSP,2013-05-07 02:49:00,
2013-05-06 19:54:00,73.6,47.1,29.79,WNW,292,0.0,6.0,39,0.00,,,0.00,WUHU21623XXSP,2013-05-07 02:54:00,
2013-05-06 19:59:00,72.9,46.4,29.79,WNW,292,0.0,6.0,39,0.00,,,0.00,WUHU21623XXSP,2013-05-07 02:59:00,
2013-05-06 20:04:00,72.3,46.7,29.79,NW,315,0.4,5.4,40,0.00,,,0.00,WUHU21623XXSP,2013-05-07 03:04:00,
2013-05-06 20:09:00,71.6,46.0,29.79,NW,315,0.0,5.4,40,0.00,,,0.00,WUHU21623XXSP,2013-05-07 03:09:00,
2013-05-06 20:14:00,71.2,46.3,29.79,NW,315,0.0,1.8,41,0.00,,,0.00,WUHU21623XXSP,2013-05-07 03:14:00,
2013-05-06 20:19:00,70.5,45.7,29.79,NW,315,0.0,0.0,41,0.00,,,0.00,WUHU21623XXSP,2013-05-07 03:19:00,
2013-05-06 20:24:00,70.2,45.9,29.79,NW,315,0.0,0.0,42,0.00,,,0.00,WUHU21623XXSP,2013-05-07 03:24:00,
2013-05-06 20:30:00,69.4,45.9,29.79,NW,315,0.0,0.0,43,0.00,,,0.00,WUHU21623XXSP,2013-05-07 03:30:00,
2013-05-06 20:34:00,68.7,45.8,29.79,NW,315,0.0,0.0,44,0.00,,,0.00,WUHU21623XXSP,2013-05-07 03:34:00,
2013-05-06 20:40:00,67.8,45.6,29.79,NW,315,0.0,0.0,45,0.00,,,0.00,WUHU21623XXSP,2013-05-07 03:40:00,
2013-05-06 20:45:00,67.3,46.3,29.80,NW,315,0.0,0.0,47,0.00,,,0.00,WUHU21623XXSP,2013-05-07 03:45:00,
2013-05-06 20:50:00,66.6,46.3,29.80,NW,315,0.0,0.0,48,0.00,,,0.00,WUHU21623XXSP,2013-05-07 03:50:00,
2013-05-06 20:55:00,66.0,46.3,29.80,NW,315,0.0,0.0,49,0.00,,,0.00,WUHU21623XXSP,2013-05-07 03:55:00,
2013-05-06 21:00:00,65.3,46.2,29.80,NW,315,0.0,0.0,50,0.00,,,0.00,WUHU21623XXSP,2013-05-07 04:00:00,
2013-05-06 21:01:00,65.1,46.0,29.80,NW,315,0.0,0.0,50,0.00,,,0.00,WUHU21623XXSP,2013-05-07 04:01:00,
2013-05-06 21:06:00,64.2,46.1,29.80,NW,315,0.0,0.0,52,0.00,,,0.00,WUHU21623XXSP,2013-05-07 04:06:00,
2013-05-06 21:11:00,63.7,45.6,29.80,NW,315,0.0,1.8,52,0.00,,,0.00,WUHU21623XXSP,2013-05-07 04:11:00,
2013-05-06 21:16:00,63.3,45.8,29.81,NW,315,0.0,1.8,53,0.00,,,0.00,WUHU21623XXSP,2013-05-07 04:16:00,
2013-05-06 21:21:00,62.8,45.8,29.81,NW,315,0.0,0.0,54,0.00,,,0.00,WUHU21623XXSP,2013-05-07 04:21:00,
2013-05-06 21:26:00,62.2,45.8,29.81,NW,315,0.0,0.0,55,0.00,,,0.00,WUHU21623XXSP,2013-05-07 04:26:00,
2013-05-06 21:31:00,61.9,46.0,29.81,NW,315,0.0,0.0,56,0.00,,,0.00,WUHU21623XXSP,2013-05-07 04:31:00,
2013-05-06 21:36:00,61.5,46.1,29.81,NW,315,0.0,0.0,57,0.00,,,0.00,WUHU21623XXSP,2013-05-07 04:36:00,
2013-05-06 21:42:00,61.2,46.3,29.81,NW,315,0.0,0.0,58,0.00,,,0.00,WUHU21623XXSP,2013-05-07 04:42:00,
2013-05-06 21:47:00,60.6,46.3,29.81,NW,315,0.0,0.0,59,0.00,,,0.00,WUHU21623XXSP,2013-05-07 04:47:00,
2013-05-06 21:52:00,60.1,46.2,29.81,NW,315,0.0,0.0,60,0.00,,,0.00,WUHU21623XXSP,2013-05-07 04:52:00,
2013-05-06 21:57:00,59.7,45.9,29.82,NW,315,0.0,0.0,60,0.00,,,0.00,WUHU21623XXSP,2013-05-07 04:57:00,
2013-05-06 22:02:00,59.2,45.7,29.82,NW,315,0.0,0.0,61,0.00,,,0.00,WUHU21623XXSP,2013-05-07 05:02:00,
2013-05-06 22:07:00,58.8,45.8,29.82,NW,315,0.0,0.0,62,0.00,,,0.00,WUHU21623XXSP,2013-05-07 05:07:00,
2013-05-06 22:12:00,58.6,46.0,29.82,NW,315,0.0,0.0,63,0.00,,,0.00,WUHU21623XXSP,2013-05-07 05:12:00,
2013-05-06 22:17:00,58.1,46.0,29.82,NW,315,0.0,0.0,64,0.00,,,0.00,WUHU21623XXSP,2013-05-07 05:17:00,
2013-05-06 22:22:00,57.9,46.2,29.83,NW,315,0.0,0.0,65,0.00,,,0.00,WUHU21623XXSP,2013-05-07 05:22:00,
2013-05-06 22:27:00,57.6,46.2,29.83,NW,315,0.0,0.0,66,0.00,,,0.00,WUHU21623XXSP,2013-05-07 05:27:00,
2013-05-06 22:32:00,57.0,45.9,29.82,NW,315,0.0,0.0,66,0.00,,,0.00,WUHU21623XXSP,2013-05-07 05:32:00,
2013-05-06 22:37:00,56.8,46.0,29.83,NW,315,0.0,0.0,67,0.00,,,0.00,WUHU21623XXSP,2013-05-07 05:37:00,
2013-05-06 22:42:00,56.5,45.6,29.82,NW,315,0.0,0.0,67,0.00,,,0.00,WUHU21623XXSP,2013-05-07 05:42:00,
2013-05-06 22:47:00,56.1,45.7,29.83,NW,315,0.0,0.0,68,0.00,,,0.00,WUHU21623XXSP,2013-05-07 05:47:00,
2013-05-06 22:52:00,55.9,45.5,29.83,NW,315,0.0,0.0,68,0.00,,,0.00,WUHU21623XXSP,2013-05-07 05:52:00,
2013-05-06 22:57:00,55.6,45.6,29.83,NW,315,0.0,0.0,69,0.00,,,0.00,WUHU21623XXSP,2013-05-07 05:57:00,
2013-05-06 23:02:00,55.2,45.3,29.83,NW,315,0.0,0.0,69,0.00,,,0.00,WUHU21623XXSP,2013-05-07 06:02:00,
2013-05-06 23:07:00,55.0,45.5,29.83,NW,315,0.0,0.0,70,0.00,,,0.00,WUHU21623XXSP,2013-05-07 06:07:00,
2013-05-06 23:12:00,54.5,45.3,29.83,NW,315,0.0,0.0,71,0.00,,,0.00,WUHU21623XXSP,2013-05-07 06:12:00,
2013-05-06 23:17:00,54.3,45.5,29.83,NW,315,0.0,0.0,72,0.00,,,0.00,WUHU21623XXSP,2013-05-07 06:17:00,
2013-05-06 23:22:00,54.1,45.3,29.83,NW,315,0.0,0.0,72,0.00,,,0.00,WUHU21623XXSP,2013-05-07 06:22:00,
2013-05-06 23:27:00,53.8,45.3,29.84,NW,315,0.0,0.0,73,0.00,,,0.00,WUHU21623XXSP,2013-05-07 06:27:00,
2013-05-06 23:32:00,53.4,45.3,29.83,NW,315,0.0,0.0,74,0.00,,,0.00,WUHU21623XXSP,2013-05-07 06:32:00,
2013-05-06 23:37:00,53.2,45.2,29.84,NW,315,0.0,0.0,74,0.00,,,0.00,WUHU21623XXSP,2013-05-07 06:37:00,
2013-05-06 23:42:00,52.9,45.2,29.84,NW,315,0.0,0.0,75,0.00,,,0.00,WUHU21623XXSP,2013-05-07 06:42:00,
2013-05-06 23:47:00,52.7,45.4,29.84,NW,315,0.0,0.0,76,0.00,,,0.00,WUHU21623XXSP,2013-05-07 06:47:00,
2013-05-06 23:52:00,52.5,45.2,29.84,NW,315,0.0,0.0,76,0.00,,,0.00,WUHU21623XXSP,2013-05-07 06:52:00,
2013-05-06 23:57:00,52.3,45.0,29.84,NW,315,0.0,0.0,76,0.00,,,0.00,WUHU21623XXSP,2013-05-07 06:57:00,